FW6138 Weather Reports


Display with metric or nautical units.
time (UTC)temp
F
wind
direction
speed
MPH
gust
MPH
rain 1hr
in
rain 24hr
in
rain mn
in
humidity
%
barometer
mb
20260503180037 73 309 1.0 4.0 0.00 0.00 0.00 54 1015.0
20260503174530 72 326 1.0 3.0 0.00 0.00 0.00 55 1015.1
20260503171530 72 115 0.0 2.0 0.00 0.00 0.00 57 1015.4
20260503150112 54 150 1.0 3.0 0.00 0.00 0.00 94 1016.6
20260503110107 47 159 0.0 2.0 0.00 0.00 0.00 95 1016.2
20260503071606 53 157 0.0 0.0 0.00 0.00 0.00 92 1015.7
20260503060106 55 159 0.0 3.0 0.00 0.00 0.00 91 1015.4
20260503054530 56 180 1.0 3.0 0.00 0.00 0.00 91 1015.5
20260503051537 57 180 0.0 1.0 0.00 0.00 0.00 91 1015.4
20260503050033 57 162 1.0 4.0 0.00 0.00 0.00 90 1015.3
20260503044539 57 117 0.0 2.0 0.00 0.00 0.00 89 1015.3
20260503043031 58 22 0.0 0.0 0.00 0.00 0.00 88 1015.1
20260503041530 59 22 0.0 0.0 0.00 0.00 0.00 86 1014.8
20260503040033 60 22 0.0 0.0 0.00 0.00 0.00 85 1014.6
20260503034533 61 22 0.0 0.0 0.00 0.00 0.00 84 1014.2
20260503033033 62 22 0.0 0.0 0.00 0.00 0.00 83 1013.9
20260503031607 64 22 0.0 0.0 0.00 0.00 0.00 83 1013.5
20260503030029 65 22 0.0 0.0 0.00 0.00 0.00 82 1013.2
20260503024530 67 22 0.0 0.0 0.00 0.00 0.00 81 1013.0
20260503023035 68 22 0.0 0.0 0.00 0.00 0.00 78 1012.9
20260503021533 70 22 0.0 0.0 0.00 0.00 0.00 74 1012.8
20260503020032 72 22 0.0 0.0 0.00 0.00 0.00 71 1012.6
20260503014537 73 22 0.0 0.0 0.00 0.00 0.00 66 1012.6
20260503013030 74 22 0.0 1.0 0.00 0.00 0.00 64 1012.6
20260503011528 75 22 0.0 2.0 0.00 0.00 0.00 61 1012.6
20260503010058 76 22 0.0 0.0 0.00 0.00 0.00 56 1012.6
20260503004529 78 22 0.0 3.0 0.00 0.00 0.00 52 1012.5
20260503003035 79 11 0.0 3.0 0.00 0.00 0.00 51 1012.5
20260503001537 80 336 1.0 4.0 0.00 0.00 0.00 50 1012.5
20260503000033 82 343 0.0 3.0 0.00 0.00 0.00 47 1012.6
20260502234531 83 198 1.0 4.0 0.00 0.00 0.00 42 1012.8
20260502233033 82 167 1.0 5.0 0.00 0.00 0.00 43 1012.9
20260502231531 82 272 0.0 5.0 0.00 0.00 0.00 46 1013.2
20260502224531 81 320 3.0 7.0 0.00 0.00 0.00 47 1013.6
20260502220105 78 105 1.0 3.0 0.00 0.00 0.00 52 1014.3
20260502213031 75 222 2.0 6.0 0.00 0.00 0.00 58 1014.8
20260502210107 72 44 1.0 3.0 0.00 0.00 0.00 62 1015.3
20260502203112 69 291 3.0 6.0 0.00 0.00 0.00 67 1015.5
20260502201531 67 164 1.0 4.0 0.00 0.00 0.00 71 1015.7
20260502200028 64 265 2.0 6.0 0.00 0.00 0.00 74 1016.0
20260502194531 62 314 3.0 6.0 0.00 0.00 0.00 76 1016.1
20260502193030 62 348 1.0 5.0 0.00 0.00 0.00 75 1016.4
20260502191529 63 332 2.0 5.0 0.00 0.00 0.00 74 1016.8
20260502190029 63 356 2.0 6.0 0.00 0.00 0.00 73 1017.0
20260502184532 64 335 3.0 6.0 0.00 0.00 0.00 74 1017.1
20260502183031 62 28 2.0 5.0 0.00 0.00 0.00 75 1017.2